| time (UTC) | temp F | wind direction | speed MPH | gust MPH | rain 1hr in | rain 24hr in | rain mn in | humidity % | barometer mb |
| 20260504034523 | 52 | 5.0 | 11.0 | 0.00 | 0.00 | 0.00 | 43 | 1011.3 | |
| 20260504033022 | 52 | 8.0 | 15.0 | 0.00 | 0.00 | 0.00 | 43 | 1010.8 | |
| 20260504031521 | 53 | 10.0 | 16.0 | 0.00 | 0.00 | 0.00 | 41 | 1010.3 | |
| 20260504030021 | 54 | 8.0 | 14.0 | 0.00 | 0.00 | 0.00 | 40 | 1010.0 | |
| 20260504024520 | 55 | 6.0 | 15.0 | 0.00 | 0.00 | 0.00 | 39 | 1009.8 | |
| 20260504023020 | 57 | 10.0 | 23.0 | 0.00 | 0.00 | 0.00 | 37 | 1009.2 | |
| 20260504021518 | 59 | 15.0 | 21.0 | 0.00 | 0.00 | 0.00 | 33 | 1008.9 | |
| 20260504020018 | 61 | 10.0 | 18.0 | 0.00 | 0.00 | 0.00 | 31 | 1008.4 | |
| 20260504014535 | 62 | 13.0 | 22.0 | 0.00 | 0.00 | 0.00 | 30 | 1008.1 | |
| 20260504013017 | 63 | 15.0 | 22.0 | 0.00 | 0.00 | 0.00 | 29 | 1007.9 | |
| 20260504011516 | 64 | 15.0 | 23.0 | 0.00 | 0.00 | 0.00 | 28 | 1007.4 | |
| 20260504010016 | 65 | 17.0 | 23.0 | 0.00 | 0.00 | 0.00 | 27 | 1007.5 | |
| 20260504004517 | 67 | 13.0 | 19.0 | 0.00 | 0.00 | 0.00 | 26 | 1007.4 | |
| 20260504003015 | 68 | 12.0 | 20.0 | 0.00 | 0.00 | 0.00 | 26 | 1007.3 | |
| 20260504001513 | 68 | 15.0 | 21.0 | 0.00 | 0.00 | 0.00 | 27 | 1007.0 | |
| 20260504000030 | 69 | 16.0 | 21.0 | 0.00 | 0.00 | 0.00 | 26 | 1006.9 | |
| 20260503234511 | 70 | 15.0 | 22.0 | 0.00 | 0.00 | 0.00 | 25 | 1006.8 | |
| 20260503233009 | 71 | 14.0 | 21.0 | 0.00 | 0.00 | 0.00 | 23 | 1006.7 | |
| 20260503231507 | 72 | 10.0 | 18.0 | 0.00 | 0.00 | 0.00 | 22 | 1006.7 | |
| 20260503230006 | 72 | 9.0 | 16.0 | 0.00 | 0.00 | 0.00 | 22 | 1006.9 | |
| 20260503224504 | 73 | 12.0 | 18.0 | 0.00 | 0.00 | 0.00 | 21 | 1006.9 | |
| 20260503223003 | 73 | 9.0 | 18.0 | 0.00 | 0.00 | 0.00 | 20 | 1007.0 | |
| 20260503221501 | 72 | 2.0 | 15.0 | 0.00 | 0.00 | 0.00 | 23 | 1007.3 | |
| 20260503220106 | 73 | 9.0 | 17.0 | 0.00 | 0.00 | 0.00 | 19 | 1007.4 | |
| 20260503214559 | 73 | 4.0 | 10.0 | 0.00 | 0.00 | 0.00 | 20 | 1007.5 | |
| 20260503213057 | 72 | 2.0 | 12.0 | 0.00 | 0.00 | 0.00 | 21 | 1007.6 | |
| 20260503211555 | 72 | 4.0 | 10.0 | 0.00 | 0.00 | 0.00 | 21 | 1007.9 | |
| 20260503210058 | 73 | 9.0 | 15.0 | 0.00 | 0.00 | 0.00 | 20 | 1008.2 | |
| 20260503204607 | 72 | 8.0 | 13.0 | 0.00 | 0.00 | 0.00 | 20 | 1008.2 | |
| 20260503203059 | 71 | 9.0 | 15.0 | 0.00 | 0.00 | 0.00 | 22 | 1008.4 | |
| 20260503201549 | 71 | 8.0 | 13.0 | 0.00 | 0.00 | 0.00 | 21 | 1008.4 | |
| 20260503200047 | 71 | 11.0 | 17.0 | 0.00 | 0.00 | 0.00 | 21 | 1008.7 | |
| 20260503194556 | 70 | 6.0 | 15.0 | 0.00 | 0.00 | 0.00 | 23 | 1009.0 | |
| 20260503193043 | 70 | 4.0 | 18.0 | 0.00 | 0.00 | 0.00 | 23 | 1009.3 | |
| 20260503191543 | 70 | 7.0 | 13.0 | 0.00 | 0.00 | 0.00 | 23 | 1009.5 | |
| 20260503190045 | 70 | 10.0 | 16.0 | 0.00 | 0.00 | 0.00 | 22 | 1009.8 | |
| 20260503184537 | 70 | 6.0 | 19.0 | 0.00 | 0.00 | 0.00 | 23 | 1009.9 | |
| 20260503183033 | 69 | 7.0 | 17.0 | 0.00 | 0.00 | 0.00 | 24 | 1010.3 | |
| 20260503181533 | 69 | 8.0 | 17.0 | 0.00 | 0.00 | 0.00 | 23 | 1010.6 | |
| 20260503180029 | 69 | 6.0 | 14.0 | 0.00 | 0.00 | 0.00 | 24 | 1010.8 | |
| 20260503174526 | 68 | 8.0 | 17.0 | 0.00 | 0.00 | 0.00 | 24 | 1010.9 | |
| 20260503173027 | 67 | 2.0 | 10.0 | 0.00 | 0.00 | 0.00 | 26 | 1011.0 | |
| 20260503171522 | 66 | 6.0 | 11.0 | 0.00 | 0.00 | 0.00 | 26 | 1011.2 | |
| 20260503081505 | 41 | 5.0 | 8.0 | 0.00 | 0.00 | 0.00 | 71 | 1012.3 | |
| 20260503071558 | 42 | 1.0 | 3.0 | 0.00 | 0.00 | 0.00 | 80 | 1012.1 | |
| 20260503054542 | 44 | 0.0 | 3.0 | 0.00 | 0.00 | 0.00 | 70 | 1012.1 | |
| 20260503053042 | 45 | 0.0 | 3.0 | 0.00 | 0.00 | 0.00 | 69 | 1012.2 | |
| 20260503051541 | 46 | 1.0 | 3.0 | 0.00 | 0.00 | 0.00 | 65 | 1012.2 | |
| 20260503050041 | 46 | 2.0 | 3.0 | 0.00 | 0.00 | 0.00 | 66 | 1012.3 | |
| 20260503044543 | 46 | 2.0 | 4.0 | 0.00 | 0.00 | 0.00 | 66 | 1012.1 | |
| 20260503043040 | 45 | 0.0 | 0.0 | 0.00 | 0.00 | 0.00 | 65 | 1012.1 | |
| 20260503041542 | 47 | 0.0 | 3.0 | 0.00 | 0.00 | 0.00 | 63 | 1012.1 | |
| 20260503040038 | 47 | 2.0 | 3.0 | 0.00 | 0.00 | 0.00 | 65 | 1012.0 |